Location: Gull Harbor
(47.1000°N, 122.9000°W)
Time: 13:19:13
(UTC-07:00)

ISS - Pass Details

Date: 26 March 2019
Orbit: 408 x 410 km, 51.6° (Epoch: 22 April)

Event Time Altitude Azimuth Distance (km) Brightness Sun altitude
Rises 22:16:44 0° 284° (WNW) 2,338 1.1 -26.6°
Reaches altitude 10° 22:18:56 10° 294° (WNW) 1,476 -0.1 -26.9°
Enters shadow 22:20:28 22° 311° (NW) 947 -1.3 -27.1°
